{"data":{"norad_id":56841,"intl_designator":"2023-079U","name":"STARLINK-30078","alt_names":[],"object_type":"PAYLOAD","status":"ACTIVE","operator":null,"country":"US","launch_date":"2023-06-04","launch_site_code":"AFETR","launch_vehicle":null,"mission":null,"orbit_class":"UNKNOWN","rcs_meters":null,"size_class":null,"mass_kg":null,"dimensions":null,"purposes":["comms"],"wikipedia_slug":null,"has_3d_model":false,"image_url":null,"decayed_at":null,"tle_current":{"epoch":"2026-05-24T23:08:48.982848Z","epoch_age_seconds":92176,"freshness":"FRESH","line1":"1 56841U 23079U   26144.96445582  .00004763  00000+0  18268-3 0  9992","line2":"2 56841  43.0030 348.6042 0001464 262.9561  97.1124 15.27547166165111","mean_motion":15.27547166,"eccentricity":0.0001464,"inclination_deg":43.003,"raan_deg":348.6042,"arg_perigee_deg":262.9561,"mean_anomaly_deg":97.1124,"bstar":0.00018268,"rev_number":16511,"period_min":94.268774938763,"perigee_km":482.14292257039,"apogee_km":484.15190664698,"semimajor_km":6861.2844146087,"source":"CELESTRAK","updated_at":"2026-05-25T13:38:18.165477Z"}}}